Tracking 25709 objects as of 23-May-2022
HD Live streaming from Space Station
objects crossing your sky now

COSMOS 2251 DEB

Track COSMOS 2251 DEB now!
10-day predictions


NORAD ID: 34026
Int'l Code: 1993-036HM
Perigee: 771.4 km
Apogee: 1,309.0 km
Inclination: 73.8 °
Period: 105.8 minutes
Semi major axis: 7411 km
RCS: 0.0392 m2 (small)
Launch date: June 16, 1993
Source: Commonwealth of Independent States (former USSR) (CIS)
Launch site: PLESETSK MISSILE AND SPACE COMPLEX (PKMTR)

Note: This is SATELLITE DEBRIS
aabbcc
Your satellite tracking list
Your tracking list is empty




NASA's NSSDC Master Catalog

Two Line Element Set (TLE):
1 34026U 93036HM  22142.89385378  .00001015  00000-0  88752-3 0  9998
2 34026  73.7677 329.3528 0362709  36.9970  82.6390 13.60732908658429
Source of the keplerian elements: AFSPC